When you browse on this site, cookies collect data to enhance your experience and personalize the content and advertising you see.
Visit our Privacy Policy to learn more. By continuing to use the site, you agree to this use of cookies and data.
  • In Hungary
  • List of Countries
  • For 7 days
  • Water Temperature
  • Weather Map
  • News
  • Weather Widgets
  • user-avatar
    Login

    Hourly Weather Zytowice

    Today, 8 December, Sunday

    Time Temperature Precipitation Wind Pressure Humidity
    00:00 +5°C° 0.2 mm 7 mps 741 mmHg 84%
    01:00 +4°C° 0 mm 7 mps 741 mmHg 83%
    02:00 +4°C° 0 mm 6 mps 741 mmHg 84%
    03:00 +4°C° 0 mm 6 mps 741 mmHg 84%
    04:00 +5°C° 0 mm 5 mps 740 mmHg 85%
    05:00 +3°C° 0 mm 6 mps 741 mmHg 85%
    06:00 +3°C° 0 mm 6 mps 741 mmHg 84%
    07:00 +3°C° 0 mm 6 mps 741 mmHg 84%
    08:00 +3°C° 0 mm 6 mps 740 mmHg 82%
    09:00 +3°C° 0 mm 7 mps 740 mmHg 79%
    10:00 +4°C° 0 mm 7 mps 740 mmHg 77%
    11:00 +4°C° 0 mm 7 mps 739 mmHg 74%
    12:00 +5°C° 0 mm 8 mps 738 mmHg 72%
    13:00 +5°C° 0 mm 8 mps 738 mmHg 70%
    14:00 +5°C° 0 mm 8 mps 737 mmHg 70%
    15:00 +5°C° 0 mm 8 mps 737 mmHg 71%
    16:00 +4°C° 0 mm 8 mps 736 mmHg 72%
    17:00 +5°C° 0 mm 8 mps 736 mmHg 71%
    18:00 +5°C° 0 mm 8 mps 736 mmHg 71%
    19:00 +5°C° 0 mm 8 mps 735 mmHg 70%
    20:00 +5°C° 0.3 mm 8 mps 735 mmHg 75%
    21:00 +5°C° 0.3 mm 8 mps 735 mmHg 79%
    22:00 +5°C° 0.3 mm 8 mps 734 mmHg 83%
    23:00 +5°C° 0.2 mm 8 mps 734 mmHg 83%

    Tomorrow, 9 December, Monday

    Time Temperature Precipitation Wind Pressure Humidity
    00:00 +5°C° 0.2 mm 8 mps 734 mmHg 82%
    01:00 +5°C° 0.2 mm 8 mps 734 mmHg 81%
    02:00 +5°C° 0.2 mm 7 mps 734 mmHg 83%
    03:00 +5°C° 0.2 mm 7 mps 734 mmHg 84%
    04:00 +5°C° 0.2 mm 7 mps 733 mmHg 86%
    05:00 +5°C° 0.4 mm 6 mps 733 mmHg 86%
    06:00 +5°C° 0.4 mm 6 mps 734 mmHg 85%
    07:00 +6°C° 0.4 mm 5 mps 734 mmHg 85%
    08:00 +5°C° 0 mm 6 mps 734 mmHg 83%
    09:00 +5°C° 0 mm 6 mps 734 mmHg 80%
    10:00 +7°C° 0 mm 6 mps 734 mmHg 78%
    11:00 +7°C° 0 mm 6 mps 734 mmHg 73%
    12:00 +7°C° 0 mm 6 mps 734 mmHg 68%
    13:00 +7°C° 0 mm 6 mps 734 mmHg 63%
    14:00 +7°C° 0 mm 6 mps 734 mmHg 64%
    15:00 +6°C° 0 mm 5 mps 734 mmHg 66%
    16:00 +5°C° 0 mm 5 mps 734 mmHg 67%
    17:00 +5°C° 0 mm 5 mps 734 mmHg 68%
    18:00 +4°C° 0 mm 6 mps 734 mmHg 70%
    19:00 +4°C° 0 mm 6 mps 734 mmHg 71%
    20:00 +4°C° 0 mm 6 mps 735 mmHg 73%
    21:00 +4°C° 0 mm 6 mps 735 mmHg 74%
    22:00 +3°C° 0 mm 7 mps 735 mmHg 75%
    23:00 +3°C° 0 mm 7 mps 736 mmHg 77%

    Day after tomorrow, 10 December, Tuesday

    Time Temperature Precipitation Wind Pressure Humidity
    00:00 +4°C° 0 mm 7 mps 736 mmHg 79%
    01:00 +4°C° 0 mm 7 mps 737 mmHg 80%
    02:00 +3°C° 0.1 mm 7 mps 737 mmHg 82%
    03:00 +3°C° 0.1 mm 6 mps 738 mmHg 83%
    04:00 +3°C° 0.1 mm 6 mps 739 mmHg 84%
    05:00 +2°C° 0 mm 6 mps 739 mmHg 81%
    06:00 +2°C° 0 mm 6 mps 740 mmHg 78%
    07:00 +1°C° 0 mm 6 mps 741 mmHg 74%
    08:00 +1°C° 0 mm 6 mps 742 mmHg 75%
    09:00 0°C° 0 mm 7 mps 742 mmHg 76%
    10:00 0°C° 0 mm 7 mps 743 mmHg 77%
    11:00 0°C° 0.1 mm 7 mps 743 mmHg 82%
    12:00 +1°C° 0.1 mm 6 mps 743 mmHg 87%
    13:00 +1°C° 0.1 mm 6 mps 744 mmHg 91%
    14:00 +1°C° 0.3 mm 6 mps 744 mmHg 91%
    15:00 +2°C° 0.3 mm 6 mps 745 mmHg 90%
    16:00 +2°C° 0.3 mm 6 mps 745 mmHg 90%
    17:00 +2°C° 0.5 mm 5 mps 746 mmHg 90%
    18:00 +2°C° 0.5 mm 5 mps 747 mmHg 90%
    19:00 +2°C° 0.5 mm 5 mps 747 mmHg 91%
    20:00 +1°C° 0.1 mm 5 mps 748 mmHg 90%
    21:00 +1°C° 0.1 mm 5 mps 748 mmHg 90%
    22:00 +1°C° 0.1 mm 4 mps 748 mmHg 89%
    23:00 +1°C° 0.1 mm 4 mps 748 mmHg 89%

    11 December, Wednesday

    Time Temperature Precipitation Wind Pressure Humidity
    00:00 0°C° 0.1 mm 4 mps 749 mmHg 89%
    01:00 0°C° 0.1 mm 4 mps 749 mmHg 88%
    02:00 +1°C° 0 mm 3 mps 749 mmHg 86%
    03:00 0°C° 0 mm 3 mps 748 mmHg 84%
    04:00 0°C° 0 mm 3 mps 748 mmHg 82%
    05:00 -1°C° 0 mm 2 mps 748 mmHg 82%
    06:00 -1°C° 0 mm 2 mps 748 mmHg 82%
    07:00 +1°C° 0 mm 1 mps 748 mmHg 82%
    08:00 -1°C° 0 mm 2 mps 747 mmHg 79%
    09:00 -1°C° 0 mm 3 mps 747 mmHg 75%
    10:00 -1°C° 0 mm 4 mps 747 mmHg 72%
    11:00 0°C° 0 mm 4 mps 746 mmHg 66%
    12:00 0°C° 0 mm 4 mps 746 mmHg 60%
    13:00 +1°C° 0 mm 5 mps 745 mmHg 55%
    14:00 0°C° 0 mm 4 mps 744 mmHg 61%
    15:00 0°C° 0 mm 4 mps 744 mmHg 67%
    16:00 -1°C° 0 mm 4 mps 743 mmHg 73%
    17:00 -1°C° 0 mm 5 mps 743 mmHg 75%
    18:00 -1°C° 0 mm 5 mps 743 mmHg 77%
    19:00 -1°C° 0 mm 5 mps 742 mmHg 79%
    20:00 -2°C° 0 mm 6 mps 742 mmHg 79%
    21:00 -2°C° 0 mm 6 mps 742 mmHg 78%
    22:00 -2°C° 0 mm 6 mps 742 mmHg 78%
    23:00 -2°C° 0 mm 6 mps 741 mmHg 77%

    12 December, Thursday

    Time Temperature Precipitation Wind Pressure Humidity
    00:00 -2°C° 0 mm 6 mps 741 mmHg 75%
    01:00 -2°C° 0 mm 7 mps 740 mmHg 73%
    02:00 -2°C° 0 mm 7 mps 740 mmHg 74%
    03:00 -2°C° 0 mm 6 mps 740 mmHg 75%
    04:00 -2°C° 0 mm 6 mps 739 mmHg 75%
    05:00 -2°C° 0.2 mm 6 mps 739 mmHg 81%
    06:00 -2°C° 0.2 mm 6 mps 739 mmHg 87%
    07:00 -2°C° 0.2 mm 6 mps 739 mmHg 93%
    08:00 -1°C° 0 mm 5 mps 740 mmHg 88%
    09:00 0°C° 0 mm 5 mps 740 mmHg 82%
    10:00 0°C° 0 mm 5 mps 740 mmHg 77%
    11:00 0°C° 0 mm 5 mps 740 mmHg 76%
    12:00 +1°C° 0 mm 5 mps 740 mmHg 74%
    13:00 +1°C° 0 mm 5 mps 740 mmHg 72%
    14:00 +1°C° 0 mm 5 mps 740 mmHg 75%
    15:00 +1°C° 0 mm 4 mps 740 mmHg 78%
    16:00 0°C° 0 mm 4 mps 740 mmHg 80%
    17:00 0°C° 0 mm 4 mps 740 mmHg 82%
    18:00 -1°C° 0 mm 4 mps 740 mmHg 84%
    19:00 -1°C° 0 mm 4 mps 740 mmHg 86%
    20:00 -1°C° 0 mm 4 mps 740 mmHg 87%
    21:00 -2°C° 0 mm 4 mps 740 mmHg 87%
    22:00 -2°C° 0 mm 4 mps 740 mmHg 88%
    23:00 -2°C° 0 mm 4 mps 739 mmHg 88%

    13 December, Friday

    Time Temperature Precipitation Wind Pressure Humidity
    00:00 -2°C° 0 mm 4 mps 739 mmHg 88%
    01:00 -2°C° 0 mm 5 mps 738 mmHg 88%
    02:00 -2°C° 0 mm 5 mps 737 mmHg 85%
    03:00 -3°C° 0 mm 6 mps 736 mmHg 82%
    04:00 -3°C° 0 mm 7 mps 735 mmHg 79%
    05:00 -2°C° 0 mm 7 mps 734 mmHg 75%
    06:00 -2°C° 0 mm 8 mps 733 mmHg 71%
    07:00 -3°C° 0 mm 9 mps 732 mmHg 67%
    08:00 -1°C° 0 mm 9 mps 731 mmHg 63%
    09:00 -1°C° 0 mm 9 mps 730 mmHg 60%
    10:00 0°C° 0 mm 9 mps 729 mmHg 56%
    11:00 0°C° 0.1 mm 9 mps 728 mmHg 56%
    12:00 +1°C° 0.1 mm 9 mps 727 mmHg 56%
    13:00 +1°C° 0.1 mm 9 mps 726 mmHg 56%
    14:00 +1°C° 0.4 mm 9 mps 725 mmHg 59%
    15:00 0°C° 0.4 mm 8 mps 725 mmHg 63%
    16:00 0°C° 0.4 mm 8 mps 725 mmHg 67%
    17:00 0°C° 0 mm 8 mps 726 mmHg 71%
    18:00 0°C° 0 mm 7 mps 726 mmHg 75%
    19:00 0°C° 0 mm 7 mps 727 mmHg 79%
    20:00 +1°C° 0 mm 6 mps 727 mmHg 82%
    21:00 -1°C° 0 mm 6 mps 728 mmHg 85%
    22:00 -1°C° 0 mm 6 mps 728 mmHg 89%
    23:00 -1°C° 0 mm 6 mps 728 mmHg 86%
    Show more